Flag for Canada Weather past 2 weeks in Newmarket, Ontario, Canada

32 °F

Light snow. Overcast.

Feels Like: 24 °F
Forecast: 22 / 34 °F
Wind: 10 mph from North

Location: Borden

Current Time: Nov 27, 2015 at 8:25:20 PM

Latest Report: Nov 27, 2015 at 8:00 PM

Visibility: 3 mi

Pressure: 30.35 "Hg

Humidity: 93%

Dew point: 30 °F

Location of NewmarketLocation

Historic Weather in Newmarket — Graph


Newmarket temperature yesterday

Maximum temperature yesterday: 59 °F (at 9:00 PM)
Minimum temperature yesterday: 39 °F (at 12:00 AM)
Average temperature yesterday: 49 °F

Past Weeks' High & Low Weather Summary

High59 °F (Nov 19, 2:59 AM)100% (Nov 15, 7:00 PM)30.58 "Hg (Nov 15, 7:00 PM)
Low10 °F (Nov 23, 2:00 AM)37% (Nov 17, 3:00 PM)29.28 "Hg (Nov 12, 7:00 PM)
Average38 °F82%30.10 "Hg
* Reported Nov 12 7:00 PM — Nov 27 7:00 PM, Newmarket, Weather by CustomWeather, © 2015

Note: Actual official high and low records may vary slightly from our data, if they occured in-between our weather recording intervals... More about our weather records


Newmarket weather history for previous 24 hours

Time TempWeatherWind HumidityBarometerVisibility
7:00 PM
Fri, Nov 27
34 °FLight rain. Low clouds.9 mph93%30.32 "Hg3 mi
6:04 PM34 °FLight rain. Overcast.8 mph93%30.29 "Hg9 mi
6:01 PM34 °FOvercast.8 mph100%30.29 "Hg9 mi
5:04 PM36 °FLight rain. Low clouds.10 mph93%30.26 "Hg9 mi
4:00 PM37 °FLow clouds.10 mph93%30.25 "Hg9 mi
3:00 PM39 °FLow clouds.13 mph93%30.23 "Hg9 mi
2:00 PM39 °FLow clouds.12 mph100%30.21 "Hg9 mi
1:02 PM41 °FLow clouds.9 mph100%30.19 "Hg9 mi
12:02 PM43 °FDrizzle. Low clouds.8 mph93%30.16 "Hg7 mi
11:01 AM52 °FLight rain. Low clouds.9 mph100%30.15 "Hg7 mi
10:04 AM52 °FLight rain. Overcast.9 mph100%30.14 "Hg9 mi
10:00 AM52 °FOvercast.9 mph100%30.14 "Hg9 mi
9:00 AM52 °FLight rain. Overcast.12 mph94%30.16 "Hg9 mi
8:00 AM52 °FLight rain. Overcast.12 mph94%30.18 "Hg4 mi
7:00 AM52 °FLight rain. Overcast.12 mph94%30.18 "Hg9 mi
6:01 AM55 °FLight rain. Overcast.16 mph72%30.18 "Hg9 mi
5:00 AM55 °FLight rain. Overcast.17 mph72%30.19 "Hg9 mi
4:51 AM55 °FLight rain. Overcast.22 mph72%30.18 "Hg9 mi
4:00 AM57 °FOvercast.18 mph67%30.20 "Hg9 mi
3:00 AM57 °FOvercast.17 mph67%30.22 "Hg9 mi
2:03 AM57 °FOvercast.18 mph67%30.21 "Hg9 mi
1:03 AM59 °FMostly cloudy.20 mph59%30.22 "Hg9 mi
12:47 AM59 °FLight rain. Mostly cloudy.18 mph59%30.23 "Hg9 mi
12:00 AM59 °FMostly cloudy.23 mph59%30.24 "Hg9 mi
11:00 PM
Thu, Nov 26
59 °FPassing clouds.20 mph63%30.24 "Hg9 mi
10:00 PM59 °FPassing clouds.23 mph63%30.24 "Hg9 mi
9:00 PM59 °FPassing clouds.24 mph63%30.25 "Hg9 mi
8:00 PM57 °FClear.20 mph67%30.25 "Hg9 mi
Weather by CustomWeather, © 2015

See weather overviewHow to use our weather pages